Regional Weather Roundup
Issued by NWS Little Rock, AR

Home | Current Version | Previous Version | Graphics & Text | Print | Product List | Glossary On
Versions: 1 2 3 4 5 6 7 8 9 10 11 12 13 14 15 16 17 18 19 20 21 22 23 24 25 26 27 28 29 30 31 32 33 34 35 36 37 38 39 40 41 42 43 44 45 46 47 48 49 50
000
ASUS44 KLZK 302105
RWRLZK

WEATHER ROUNDUP FOR ARKANSAS
NATIONAL WEATHER SERVICE LITTLE ROCK AR
400 PM CDT TUE SEP 30 2014

NOTE: "FAIR" INDICATES FEW OR NO CLOUDS BELOW 12,000 FEET WITH NO
SIGNIFICANT WEATHER AND/OR OBSTRUCTIONS TO VISIBILITY.

ARZ001-003-010-029-302200-
NORTHWEST ARKANSAS

CITY           SKY/WX    TMP DP  RH WIND       PRES   REMARKS
FAYETTEVILLE   MOSUNNY   80  60  50 S8        29.88F
FORT SMITH     PTSUNNY   83  62  49 SE8       29.85F
HARRISON       MOSUNNY   82  58  43 S7        29.90F
BENTONVILLE    MOSUNNY   81  59  47 S7        29.88F
ROGERS         MOSUNNY   81  58  45 S13       29.88F
SILOAM SPGS    MOSUNNY   82  61  47 S13       29.88F
HIGHFILL       MOSUNNY   81  60  48 S12       29.87F
SPRINGDALE     MOSUNNY   81  59  47 S10       29.90F
$$

ARZ004-005-016-302200-
NORTH CENTRAL ARKANSAS

CITY           SKY/WX    TMP DP  RH WIND       PRES   REMARKS
BATESVILLE     SUNNY     88  52  29 E9        29.86F HX  85
FLIPPIN        SUNNY     82  52  34 SE5       29.88F
MTN HOME       SUNNY     84  52  33 VRB7      29.88F
$$

ARZ040-041-302200-
WEST CENTRAL ARKANSAS

CITY           SKY/WX    TMP DP  RH WIND       PRES   REMARKS
MENA           CLOUDY    82  64  54 CALM      29.88F
MOUNT IDA      CLOUDY    83  61  47 CALM      29.86F
$$

ARZ009-017-025-026-028-302200-
NORTHEAST ARKANSAS

CITY           SKY/WX    TMP DP  RH WIND       PRES   REMARKS
CORNING        LGT RAIN  86  55  35 S6        29.88S
JONESBORO      MOSUNNY   87  54  32 E3        29.86F HX  85
NEWPORT        MOSUNNY   88  54  31 VRB7      29.88F HX  86
WALNUT RIDGE   SUNNY     84  54  34 SW3       29.86F
BLYTHEVILLE    MOSUNNY   89  58  34 VRB5      29.87F HX  88
NW BLYTHEVILLE MOSUNNY   88  57  35 E7        29.87  HX  86
$$

ARZ022-023-033-042-044-302200-
CENTRAL ARKANSAS

CITY           SKY/WX    TMP DP  RH WIND       PRES   REMARKS
LITTLE ROCK    PTSUNNY   88  55  32 S7        29.86F HX  86
N LITTLE ROCK  PTSUNNY   85  54  34 SW7       29.86F
JACKSONVILLE   MOSUNNY   88  56  34 E7        29.86F HX  86
SEARCY         SUNNY     87  52  29 CALM      29.88F HX  85
HOT SPRINGS    PTSUNNY   86  59  39 SW6       29.87F HX  85
RUSSELLVILLE   PTSUNNY   85  59  41 S3        29.86F
CLINTON        FAIR      88  57  35 W3        29.86F HX  86
$$

ARZ036-302200-
EAST ARKANSAS

CITY           SKY/WX    TMP DP  RH WIND       PRES   REMARKS
WEST MEMPHIS   MOSUNNY   87  60  40 SW5       29.86F HX  87
$$

ARZ050-053-066-070-073-302200-
SOUTHWEST ARKANSAS

CITY           SKY/WX    TMP DP  RH WIND       PRES   REMARKS
ARKADELPHIA    FAIR      88  63  43 VRB3      29.86F HX  89
CAMDEN         MOSUNNY   91  59  33 S3        29.84F HX  90
TEXARKANA      CLOUDY    85  65  51 E6        29.83F HX  86
EL DORADO      SUNNY     89  63  41 NE3       29.85F HX  90
DE QUEEN       PTSUNNY   86  64  47 E7        29.82F HX  87
$$

ARZ056-057-069-302200-
SOUTHEAST ARKANSAS

CITY           SKY/WX    TMP DP  RH WIND       PRES   REMARKS
PINE BLUFF     MOSUNNY   86  58  38 W8        29.86F HX  85
STUTTGART      PTSUNNY  N/A N/A N/A W3        29.87F
MONTICELLO     MOSUNNY   86  59  39 E3        29.85F HX  85

$$





USA.gov is the U.S. government's official web portal to all federal, state and local government web resources and services.